Frankford, WV

3:30 AM EST on December 10, 2016 (GMT -0500)
Greenbrier Valley

Weather History for KLWB - December, 2012

Change the Weather History Date:

Monday, December 3, 2012

  Actual Average Record
Temperature  
Mean Temperature 48 °F 35 °F  
Max Temperature 60 °F 45 °F 68 °F (1982)
Min Temperature 37 °F 24 °F 9 °F (1979)
Degree Days  
Heating Degree Days 16    
Month to date heating degree days  
Since 1 July heating degree days  
Cooling Degree Days 0    
Month to date cooling degree days  
Year to date cooling degree days  
Moisture  
Dew Point 43 °F    
Average Humidity 81    
Maximum Humidity 100    
Minimum Humidity 55    
Precipitation  
Precipitation 0.00 in 0.11 in 1.55 in (1991)
Month to date precipitation 0.31  
Year to date precipitation 37.13  
Snow  
Snow 0.00 in - - ()
Month to date snowfall  
Since 1 July snowfall  
Snow Depth -    
Sea Level Pressure  
Sea Level Pressure 30.27 in    
Wind  
Wind Speed 2 mph (WSW)    
Max Wind Speed 8 mph    
Max Gust Speed -    
Visibility 9 miles    
Events Fog    
T = Trace of Precipitation, MM = Missing Value Source: NWS Daily Summary

Daily Weather History Graph

Daily Weather History Graph

Search for Another Location

Airport or City:

Trip Planner

Search our weather history database for the weather conditions in past years. The results will help you decide how hot, cold, wet, or windy it might be!

Date:

Astronomy

Dec. 03, 2012 Rise Set
Actual Time 7:20 AM EST 5:02 PM EST
Civil Twilight 6:51 AM EST 5:31 PM EST
Nautical Twilight 6:19 AM EST 6:04 PM EST
Astronomical Twilight 5:47 AM EST 6:35 PM EST
Moon 9:44 PM EST (12/3) 10:45 AM EST (12/3)
Length of Visible Light 10h 39m
Length of Day
9h 41m
Waning Gibbous, 78% of the Moon is Illuminated
Dec 3
Waning Gibbous
Dec 6
Last Quarter
Dec 13
New
Dec 20
First Quarter
Dec 28
Full

Hourly Weather History & Observations

Time (EST) Temp. Windchill Dew Point Humidity Pressure Visibility Wind Dir Wind Speed Gust Speed Precip Events Conditions
12:15 AM 46.4 °F - 44.6 °F 93% 30.25 in 10.0 mi Calm Calm - N/A   Overcast
12:35 AM 46.4 °F - 42.8 °F 87% 30.25 in 10.0 mi Calm Calm - N/A   Overcast
12:55 AM 46.4 °F - 42.8 °F 87% 30.26 in 10.0 mi Calm Calm - N/A   Overcast
1:15 AM 46.4 °F - 42.8 °F 87% 30.26 in 10.0 mi Calm Calm - N/A   Overcast
1:35 AM 46.4 °F - 44.6 °F 93% 30.26 in 10.0 mi Calm Calm - N/A   Overcast
1:55 AM 46.4 °F - 42.8 °F 87% 30.26 in 10.0 mi Calm Calm - N/A   Overcast
2:15 AM 48.2 °F - 42.8 °F 82% 30.26 in 10.0 mi WSW 3.5 mph - N/A   Overcast
2:35 AM 48.2 °F - 42.8 °F 82% 30.26 in 10.0 mi SW 3.5 mph - N/A   Overcast
2:55 AM 46.4 °F - 42.8 °F 87% 30.26 in 10.0 mi Calm Calm - N/A   Overcast
3:15 AM 46.4 °F - 42.8 °F 87% 30.26 in 10.0 mi Calm Calm - N/A   Overcast
3:35 AM 46.4 °F 43.5 °F 42.8 °F 87% 30.26 in 10.0 mi SW 5.8 mph - N/A   Mostly Cloudy
3:55 AM 46.4 °F 45.2 °F 41.0 °F 81% 30.25 in 10.0 mi South 3.5 mph - N/A   Clear
4:15 AM 44.6 °F 43.1 °F 42.8 °F 93% 30.25 in 10.0 mi South 3.5 mph - N/A   Clear
4:35 AM 44.6 °F - 42.8 °F 93% 30.26 in 10.0 mi Calm Calm - N/A   Mostly Cloudy
4:55 AM 46.4 °F 45.2 °F 42.8 °F 87% 30.26 in 10.0 mi SW 3.5 mph - N/A   Overcast
5:15 AM 44.6 °F 42.2 °F 41.0 °F 87% 30.25 in 10.0 mi WSW 4.6 mph - N/A   Scattered Clouds
5:35 AM 46.4 °F 45.2 °F 42.8 °F 87% 30.26 in 10.0 mi WSW 3.5 mph - N/A   Mostly Cloudy
5:55 AM 44.6 °F 43.1 °F 41.0 °F 87% 30.26 in 10.0 mi South 3.5 mph - N/A   Mostly Cloudy
6:15 AM 44.6 °F - 41.0 °F 87% 30.26 in 10.0 mi Calm Calm - N/A   Scattered Clouds
6:35 AM 44.6 °F 42.2 °F 42.8 °F 93% 30.27 in 10.0 mi SSW 4.6 mph - N/A   Scattered Clouds
6:55 AM 42.8 °F - 41.0 °F 93% 30.28 in 7.0 mi Calm Calm - N/A   Mostly Cloudy
7:15 AM 44.6 °F - 42.8 °F 93% 30.28 in 10.0 mi Calm Calm - N/A   Overcast
7:35 AM 46.4 °F 45.2 °F 42.8 °F 87% 30.28 in 10.0 mi South 3.5 mph - N/A   Overcast
7:55 AM 46.4 °F - 42.8 °F 87% 30.29 in 10.0 mi Calm Calm - N/A   Mostly Cloudy
8:15 AM 46.4 °F - 42.8 °F 87% 30.29 in 10.0 mi Calm Calm - N/A   Scattered Clouds
8:35 AM 46.4 °F - 42.8 °F 87% 30.29 in 7.0 mi Calm Calm - N/A   Scattered Clouds
8:55 AM 46.4 °F - 44.6 °F 93% 30.30 in 10.0 mi Calm Calm - N/A   Clear
9:15 AM 51.8 °F - 44.6 °F 76% 30.30 in 10.0 mi Calm Calm - N/A   Scattered Clouds
9:35 AM 51.8 °F - 44.6 °F 76% 30.30 in 10.0 mi Calm Calm - N/A   Mostly Cloudy
9:55 AM 53.6 °F - 46.4 °F 77% 30.30 in 10.0 mi Calm Calm - N/A   Overcast
10:15 AM 55.4 °F - 46.4 °F 72% 30.30 in 10.0 mi West 4.6 mph - N/A   Overcast
10:35 AM 55.4 °F - 44.6 °F 67% 30.30 in 10.0 mi SW 5.8 mph - N/A   Mostly Cloudy
10:55 AM 55.4 °F - 44.6 °F 67% 30.30 in 10.0 mi WSW 6.9 mph - N/A   Overcast
11:15 AM 55.4 °F - 44.6 °F 67% 30.30 in 10.0 mi WSW 4.6 mph - N/A   Overcast
11:35 AM 57.2 °F - 46.4 °F 67% 30.29 in 10.0 mi WSW 8.1 mph - N/A   Overcast
11:55 AM 57.2 °F - 46.4 °F 67% 30.28 in 10.0 mi West 6.9 mph - N/A   Overcast
12:15 PM 59.0 °F - 46.4 °F 63% 30.28 in 10.0 mi West 6.9 mph - N/A   Overcast
12:35 PM 59.0 °F - 46.4 °F 63% 30.27 in 10.0 mi West 4.6 mph - N/A   Overcast
12:55 PM 59.0 °F - 46.4 °F 63% 30.26 in 10.0 mi WSW 5.8 mph - N/A   Overcast
1:15 PM 59.0 °F - 46.4 °F 63% 30.26 in 10.0 mi West 3.5 mph - N/A   Overcast
1:55 PM 59.0 °F - 46.4 °F 63% 30.25 in 10.0 mi WSW 3.5 mph - N/A   Mostly Cloudy
2:15 PM 60.8 °F - 46.4 °F 59% 30.24 in 10.0 mi Calm Calm - N/A   Overcast
2:35 PM 60.8 °F - 46.4 °F 59% 30.24 in 10.0 mi WSW 5.8 mph - N/A   Mostly Cloudy
2:55 PM 60.8 °F - 44.6 °F 55% 30.24 in 10.0 mi WSW 3.5 mph - N/A   Mostly Cloudy
3:15 PM 59.0 °F - 44.6 °F 59% 30.24 in 10.0 mi WSW 3.5 mph - N/A   Scattered Clouds
3:35 PM 60.8 °F - 44.6 °F 55% 30.24 in 10.0 mi Calm Calm - N/A   Mostly Cloudy
3:55 PM 59.0 °F - 44.6 °F 59% 30.24 in 10.0 mi Calm Calm - N/A   Mostly Cloudy
4:15 PM 59.0 °F - 44.6 °F 59% 30.24 in 10.0 mi Calm Calm - N/A   Scattered Clouds
4:35 PM 57.2 °F - 44.6 °F 63% 30.25 in 10.0 mi Calm Calm - N/A   Scattered Clouds
4:55 PM 55.4 °F - 44.6 °F 67% 30.25 in 10.0 mi Calm Calm - N/A   Scattered Clouds
5:15 PM 53.6 °F - 44.6 °F 72% 30.25 in 10.0 mi Calm Calm - N/A   Scattered Clouds
5:35 PM 53.6 °F - 44.6 °F 72% 30.26 in 10.0 mi Calm Calm - N/A   Scattered Clouds
5:55 PM 51.8 °F - 44.6 °F 76% 30.26 in 10.0 mi Calm Calm - N/A   Clear
6:15 PM 51.8 °F - 44.6 °F 76% 30.26 in 10.0 mi Calm Calm - N/A   Clear
6:35 PM 50.0 °F - 44.6 °F 82% 30.26 in 10.0 mi Calm Calm - N/A   Clear
6:55 PM 48.2 °F - 42.8 °F 82% 30.26 in 10.0 mi Calm Calm - N/A   Clear
7:15 PM 48.2 °F - 44.6 °F 87% 30.26 in 10.0 mi Calm Calm - N/A   Clear
7:35 PM 48.2 °F - 44.6 °F 87% 30.26 in 10.0 mi Calm Calm - N/A   Clear
7:55 PM 44.6 °F - 42.8 °F 93% 30.26 in 7.0 mi Calm Calm - N/A   Clear
8:15 PM 44.6 °F - 42.8 °F 93% 30.26 in 10.0 mi Calm Calm - N/A   Clear
8:35 PM 44.6 °F 43.1 °F 42.8 °F 93% 30.27 in 10.0 mi North 3.5 mph - N/A   Clear
8:55 PM 42.8 °F - 39.2 °F 87% 30.27 in 7.0 mi Calm Calm - N/A   Clear
9:15 PM 42.8 °F - 41.0 °F 93% 30.27 in 7.0 mi Calm Calm - N/A   Clear
9:35 PM 41.0 °F - 39.2 °F 93% 30.26 in 7.0 mi Calm Calm - N/A   Clear
9:55 PM 41.0 °F - 39.2 °F 93% 30.26 in 7.0 mi Calm Calm - N/A   Clear
10:15 PM 41.0 °F - 39.2 °F 93% 30.26 in 5.0 mi Calm Calm - N/A   Clear
10:35 PM 41.0 °F 39.0 °F 39.2 °F 93% 30.26 in 1.0 mi NNE 3.5 mph - N/A   Mist
10:55 PM 39.2 °F 37.0 °F 37.4 °F 93% 30.26 in 1.0 mi NNE 3.5 mph - N/A   Mist
11:15 PM 39.2 °F 35.9 °F 37.4 °F 93% 30.27 in 1.5 mi NNE 4.6 mph - N/A   Mist
11:35 PM 37.4 °F - 37.4 °F 100% 30.27 in 1.5 mi Calm Calm - N/A   Mist
11:55 PM 37.4 °F 34.9 °F 37.4 °F 100% 30.27 in 0.2 mi ENE 3.5 mph - N/A Fog Fog